• In Latvia
  • List of Countries
  • For 7 days
  • Water Temperature
  • Satellite Maps
  • Weather Map
  • Weather Widgets
  • user-avatar
    Login

    Hourly Weather Djelfa

    Today, 25 February, Saturday

    Time Temperature Precipitation Wind Pressure Humidity
    00:00 +6°C° 0 mm 5 mps 662 mmHg 88%
    01:00 +6°C° 0 mm 5 mps 662 mmHg 89%
    02:00 +5°C° 0 mm 6 mps 662 mmHg 89%
    03:00 +4°C° 0 mm 6 mps 661 mmHg 90%
    04:00 +4°C° 0 mm 6 mps 662 mmHg 90%
    05:00 +5°C° 0 mm 5 mps 662 mmHg 90%
    06:00 +5°C° 0 mm 5 mps 661 mmHg 91%
    07:00 +5°C° 0 mm 6 mps 662 mmHg 86%
    08:00 +5°C° 0 mm 6 mps 662 mmHg 81%
    09:00 +6°C° 0 mm 7 mps 663 mmHg 77%
    10:00 +8°C° 0 mm 7 mps 663 mmHg 71%
    11:00 +9°C° 0 mm 7 mps 663 mmHg 66%
    12:00 +10°C° 0 mm 7 mps 663 mmHg 60%
    13:00 +11°C° 0 mm 7 mps 663 mmHg 58%
    14:00 +11°C° 0 mm 7 mps 663 mmHg 56%
    15:00 +11°C° 0 mm 7 mps 663 mmHg 54%
    16:00 +10°C° 0 mm 6 mps 663 mmHg 57%
    17:00 +9°C° 0 mm 6 mps 663 mmHg 61%
    18:00 +8°C° 0 mm 5 mps 663 mmHg 64%
    19:00 +7°C° 0 mm 5 mps 664 mmHg 68%
    20:00 +7°C° 0 mm 5 mps 664 mmHg 72%
    21:00 +6°C° 0 mm 5 mps 665 mmHg 76%
    22:00 +5°C° 0 mm 4 mps 665 mmHg 77%
    23:00 +5°C° 0 mm 4 mps 665 mmHg 78%

    Tomorrow, 26 February, Sunday

    Time Temperature Precipitation Wind Pressure Humidity
    00:00 +5°C° 0 mm 3 mps 665 mmHg 79%
    01:00 +4°C° 0 mm 3 mps 665 mmHg 80%
    02:00 +4°C° 0 mm 3 mps 665 mmHg 82%
    03:00 +3°C° 0 mm 3 mps 664 mmHg 83%
    04:00 +3°C° 0 mm 3 mps 664 mmHg 86%
    05:00 +2°C° 0 mm 3 mps 664 mmHg 88%
    06:00 +2°C° 0 mm 3 mps 664 mmHg 90%
    07:00 +3°C° 0 mm 4 mps 665 mmHg 81%
    08:00 +4°C° 0 mm 4 mps 665 mmHg 73%
    09:00 +5°C° 0 mm 4 mps 666 mmHg 64%
    10:00 +7°C° 0 mm 4 mps 666 mmHg 56%
    11:00 +8°C° 0 mm 4 mps 666 mmHg 48%
    12:00 +11°C° 0 mm 4 mps 666 mmHg 39%
    13:00 +11°C° 0 mm 4 mps 666 mmHg 37%
    14:00 +12°C° 0 mm 4 mps 665 mmHg 35%
    15:00 +13°C° 0 mm 4 mps 665 mmHg 32%
    16:00 +12°C° 0 mm 3 mps 665 mmHg 35%
    17:00 +12°C° 0 mm 2 mps 665 mmHg 38%
    18:00 +10°C° 0 mm 2 mps 665 mmHg 41%
    19:00 +9°C° 0 mm 2 mps 665 mmHg 44%
    20:00 +9°C° 0 mm 1 mps 665 mmHg 46%
    21:00 +8°C° 0 mm 1 mps 665 mmHg 49%
    22:00 +7°C° 0 mm 0 mps 665 mmHg 51%
    23:00 +6°C° 0 mm 0 mps 664 mmHg 52%

    Day after tomorrow, 27 February, Monday

    Time Temperature Precipitation Wind Pressure Humidity
    00:00 +6°C° 0 mm 0 mps 664 mmHg 54%
    01:00 +5°C° 0 mm 0 mps 664 mmHg 53%
    02:00 +6°C° 0 mm 1 mps 664 mmHg 53%
    03:00 +6°C° 0 mm 1 mps 664 mmHg 52%
    04:00 +6°C° 0 mm 1 mps 664 mmHg 53%
    05:00 +6°C° 0 mm 1 mps 663 mmHg 54%
    06:00 +5°C° 0 mm 1 mps 663 mmHg 55%
    07:00 +6°C° 0 mm 2 mps 664 mmHg 51%
    08:00 +8°C° 0 mm 2 mps 665 mmHg 47%
    09:00 +10°C° 0 mm 2 mps 666 mmHg 43%
    10:00 +13°C° 0 mm 2 mps 666 mmHg 39%
    11:00 +14°C° 0 mm 2 mps 666 mmHg 36%
    12:00 +15°C° 0 mm 2 mps 666 mmHg 32%
    13:00 +16°C° 0 mm 2 mps 665 mmHg 30%
    14:00 +16°C° 0 mm 2 mps 665 mmHg 29%
    15:00 +17°C° 0 mm 2 mps 664 mmHg 27%
    16:00 +16°C° 0 mm 2 mps 664 mmHg 31%
    17:00 +15°C° 0 mm 2 mps 664 mmHg 35%
    18:00 +14°C° 0 mm 2 mps 664 mmHg 39%
    19:00 +13°C° 0 mm 1 mps 664 mmHg 42%
    20:00 +12°C° 0 mm 1 mps 664 mmHg 45%
    21:00 +11°C° 0 mm 1 mps 665 mmHg 49%
    22:00 +10°C° 0 mm 1 mps 664 mmHg 54%
    23:00 +10°C° 0 mm 1 mps 664 mmHg 58%

    28 February, Tuesday

    Time Temperature Precipitation Wind Pressure Humidity
    00:00 +9°C° 0 mm 1 mps 664 mmHg 63%
    01:00 +9°C° 0 mm 1 mps 664 mmHg 67%
    02:00 +8°C° 0 mm 1 mps 663 mmHg 70%
    03:00 +8°C° 0 mm 1 mps 663 mmHg 73%
    04:00 +7°C° 0 mm 2 mps 663 mmHg 74%
    05:00 +6°C° 0 mm 2 mps 663 mmHg 75%
    06:00 +6°C° 0 mm 2 mps 664 mmHg 76%
    07:00 +8°C° 0 mm 2 mps 664 mmHg 66%
    08:00 +10°C° 0 mm 3 mps 665 mmHg 55%
    09:00 +11°C° 0 mm 4 mps 666 mmHg 44%
    10:00 +13°C° 0 mm 4 mps 666 mmHg 40%
    11:00 +14°C° 0 mm 4 mps 666 mmHg 35%
    12:00 +15°C° 0 mm 4 mps 666 mmHg 31%
    13:00 +17°C° 0 mm 4 mps 666 mmHg 30%
    14:00 +17°C° 0 mm 4 mps 666 mmHg 29%
    15:00 +18°C° 0 mm 4 mps 665 mmHg 28%
    16:00 +17°C° 0 mm 3 mps 665 mmHg 32%
    17:00 +14°C° 0 mm 3 mps 665 mmHg 36%
    18:00 +14°C° 0 mm 2 mps 665 mmHg 40%
    19:00 +13°C° 0 mm 2 mps 665 mmHg 44%
    20:00 +13°C° 0 mm 2 mps 665 mmHg 48%
    21:00 +12°C° 0 mm 2 mps 666 mmHg 52%
    22:00 +11°C° 0 mm 1 mps 665 mmHg 55%
    23:00 +10°C° 0 mm 1 mps 665 mmHg 59%

    1 March, Wednesday

    Time Temperature Precipitation Wind Pressure Humidity
    00:00 +10°C° 0 mm 1 mps 665 mmHg 62%
    01:00 +9°C° 0 mm 1 mps 665 mmHg 64%
    02:00 +9°C° 0 mm 1 mps 664 mmHg 66%
    03:00 +8°C° 0 mm 1 mps 664 mmHg 69%
    04:00 +8°C° 0 mm 1 mps 664 mmHg 71%
    05:00 +7°C° 0 mm 1 mps 665 mmHg 74%
    06:00 +7°C° 0 mm 1 mps 665 mmHg 77%
    07:00 +9°C° 0 mm 1 mps 666 mmHg 67%
    08:00 +10°C° 0 mm 0 mps 667 mmHg 57%
    09:00 +12°C° 0 mm 0 mps 668 mmHg 47%
    10:00 +15°C° 0 mm 1 mps 668 mmHg 41%
    11:00 +16°C° 0 mm 1 mps 668 mmHg 34%
    12:00 +17°C° 0 mm 2 mps 668 mmHg 27%
    13:00 +18°C° 0 mm 2 mps 668 mmHg 25%
    14:00 +18°C° 0 mm 2 mps 667 mmHg 23%
    15:00 +19°C° 0 mm 2 mps 667 mmHg 21%
    16:00 +18°C° 0 mm 2 mps 667 mmHg 24%
    17:00 +17°C° 0 mm 2 mps 667 mmHg 27%
    18:00 +15°C° 0 mm 2 mps 667 mmHg 29%
    19:00 +15°C° 0 mm 2 mps 667 mmHg 31%
    20:00 +14°C° 0 mm 2 mps 667 mmHg 32%
    21:00 +13°C° 0 mm 2 mps 667 mmHg 34%
    22:00 +12°C° 0 mm 2 mps 667 mmHg 35%
    23:00 +12°C° 0 mm 2 mps 667 mmHg 37%

    2 March, Thursday

    Time Temperature Precipitation Wind Pressure Humidity
    00:00 +10°C° 0 mm 2 mps 667 mmHg 38%
    01:00 +10°C° 0 mm 2 mps 666 mmHg 40%
    02:00 +9°C° 0 mm 2 mps 666 mmHg 42%
    03:00 +9°C° 0 mm 2 mps 666 mmHg 44%
    04:00 +8°C° 0 mm 2 mps 665 mmHg 45%
    05:00 +8°C° 0 mm 2 mps 665 mmHg 46%
    06:00 +8°C° 0 mm 2 mps 665 mmHg 47%
    07:00 +10°C° 0 mm 2 mps 666 mmHg 42%
    08:00 +13°C° 0 mm 2 mps 667 mmHg 37%
    09:00 +15°C° 0 mm 2 mps 668 mmHg 32%
    10:00 +17°C° 0 mm 2 mps 668 mmHg 29%
    11:00 +18°C° 0 mm 3 mps 668 mmHg 26%
    12:00 +20°C° 0 mm 3 mps 668 mmHg 23%
    13:00 +20°C° 0 mm 3 mps 667 mmHg 22%
    14:00 +21°C° 0 mm 3 mps 667 mmHg 21%
    15:00 +21°C° 0 mm 3 mps 666 mmHg 20%
    16:00 +20°C° 0 mm 3 mps 666 mmHg 24%
    17:00 +18°C° 0 mm 3 mps 666 mmHg 27%
    18:00 +17°C° 0 mm 2 mps 665 mmHg 30%
    19:00 +16°C° 0 mm 3 mps 665 mmHg 32%
    20:00 +14°C° 0 mm 3 mps 665 mmHg 34%
    21:00 +14°C° 0 mm 3 mps 666 mmHg 36%
    22:00 +13°C° 0 mm 3 mps 665 mmHg 37%
    23:00 +12°C° 0 mm 3 mps 665 mmHg 39%
    Show more